Simultaneous Nadir Overpasses (SNOs) Predictions

Prediction of SNOs near US between AQUA and NPP Satellite Orbit:

Table of predicted SNOs near US for the next 10.0 days since TLE Epoch: 1/24/2020
Index Date (AQUA) Time (AQUA) AQUA Lat,Lon Date (NPP) Time (NPP) NPP Lat,Lon Distance(km) Time Diff (sec)
1 01/28/2020 07:18:43 49.91, -75.96 01/28/2020 07:19:34 50.34, -78.10 159.80 51
2 01/28/2020 08:57:36 49.92,-100.68 01/28/2020 09:01:02 50.45,-103.43 204.28 206
3 01/30/2020 18:16:54 49.99, -80.19 01/30/2020 18:09:52 49.70, -81.66 110.03 422
4 01/30/2020 19:55:47 49.98,-104.91 01/30/2020 19:51:20 49.59,-106.98 155.26 267
5 01/30/2020 21:30:57 36.68,-124.99 01/30/2020 21:28:59 36.21,-127.48 229.19 118
6 02/02/2020 09:24:29 20.03,-114.22 02/02/2020 09:16:09 19.96,-114.68 48.49 500




NCC Satellite Simultaneous Nadir Overpasses (SNOs) Prediction Service
